Bienvenue à Buzet

Un aérodrome chargé d'histoire

Confluence

La société Conflueunce, école de pilotage d'ULM en Belgique nous accueille chaleureusement sur ses terres.

Cet ancien terrain de Hockey a petit à petit laissé place à la première piste d'ULM approuvé par l'aviation civile en Belgique.

Depuis ses débuts, cet aérodrome est en constante : construction de plusieurs hangars pour abriter les avions, doublement de la superficie, accueil d'une école de parachutisme, d'un restaurant et dernièrement notre société.

Nous avons sélectionné cette plaine d'aviation pour l'ambiance aéronautique que vous ne trouverez nulle part ailleurs, pour la diversité des activités, pour que vos proches puissent admirer les ULM lors de vos vols, pour le restaurant qui vous transportera directement en Italie.

 


Barone 21

Cuisine familiale Toscane

Barone 21

Présent sur l'aérodrome, ce restaurant Italien vous ouvre ses portes tous les jours (excepté le lundi et le mardi).

Disposant de deux autres restaurants sur Bruxelles, le patron à l'accent Italien très prononcé vous fera découvrir les spécialités de la Toscane.

Tous les jours, de nouveaux plats délicieux et copieux vous raviront.

Pour plus d'informations : 071/84.28.11 ou 0476/274.811


Caractéristiques du terrain

Première consigne : attention aux riverains

Image circuit

Afin d'avoir une bonne cohabitation, nous veillons à respecter au maximum les riverains.

La carte ci-contre vous présente les principales consignes locales.

 

Général

  • ICAO : EBBZ
  • Localisation : N50°32'30'', E4°22'52''
  • Fréquence radio : 124.050 MHz
  • Heures d'ouverture : 11h - SS

La piste

  • 16/34, herbe, 350 x 30 m
  • QFU : 155°/335°
  • TODA/LDA : 210 m
  • Elévation : 159 m / 522 ft

Intégration & circuit

  • Intégration par le nord, à 1200 ft QNH.
  • Circuit au nord-est, aussi près que possible de la piste, à 850 ft QNH
  • Attention à la CTR de Charleroi (EBCI) au sud de la piste !

News

Votre panier

Le panier est vide

Météo Charleroi

METAR
EBCI 232350Z 27006KT 250V330 7000 FEW004 BKN006 01/M01 Q0995 R24/590293 NOSIG =
EBCI 232302Z 2400/2506 28010KT 9999 SCT010 SCT020 TEMPO 2400/2406 BKN008 BECMG 2407/2409 20006KT BECMG 2417/2419 3500 -SN SCT004 BKN009 TEMPO 2419/2506 0800 SN BKN002
TAF
EBCI 232302Z 2400/2506 28010KT 9999 SCT010 SCT020 TEMPO 2400/2406 BKN008 BECMG 2407/2409 20006KT BECMG 2417/2419 3500 -SN SCT004 BKN009 TEMPO 2419/2506 0800 SN BKN002 =
Lever / Coucher : 07:27 / 16:23 UTC (Buzet 2021-01-24)